HK6LRQ-21 Weather Reports


time (UTC)temp
F
wind
direction
speed
knots
gust
knots
rain 1hr
in
rain 24hr
in
rain mn
in
humidity
%
barometer
mb
20260507160239 66 262 4.3 4.3 0.00 0.00 0.00 83 1015.0
20260507154238 67 262 4.3 4.3 0.00 0.00 0.00 73 1015.0
20260507152237 64 262 3.5 4.3 0.00 0.00 0.00 83 1016.0
20260507150236 64 262 3.5 4.3 0.00 0.00 0.00 83 1016.0
20260507144235 65 262 3.5 4.3 0.00 0.00 0.00 71 1016.0
20260507142234 59 253 2.6 3.5 0.00 0.00 0.00 77 1017.0
20260507140233 59 253 2.6 3.5 0.00 0.00 0.00 76 1017.0
20260507134232 58 253 2.6 3.5 0.00 0.00 0.00 72 1017.0
20260507132231 58 226 0.9 2.6 0.00 0.00 0.00 75 1017.0
20260507130230 59 226 0.9 2.6 0.00 0.00 0.00 75 1017.0
20260507124229 61 226 0.9 2.6 0.00 0.00 0.00 75 1017.0
20260507122228 52 95 2.6 3.5 0.00 0.00 0.00 80 1017.0
20260507120227 52 95 2.6 3.5 0.00 0.00 0.00 80 1017.0
20260507114226 51 92 4.3 3.5 0.00 0.00 0.00 80 1017.0
20260507112225 52 92 4.3 3.5 0.00 0.00 0.00 80 1016.0
20260507110224 50 93 4.3 3.5 0.00 0.00 0.00 80 1016.0
20260507104223 51 93 4.3 3.5 0.00 0.00 0.00 80 1017.0
20260507102222 52 93 4.3 3.5 0.00 0.00 0.00 80 1016.0
20260507100222 50 93 4.3 3.5 0.00 0.00 0.00 80 1016.0
20260507094221 52 93 4.3 3.5 0.00 0.00 0.00 80 1017.0
20260507092220 50 93 4.3 3.5 0.00 0.00 0.00 80 1016.0
20260507090219 51 93 4.3 3.5 0.00 0.00 0.00 80 1016.0
20260507084218 53 93 4.3 3.5 0.00 0.00 0.00 80 1017.0
20260507082217 50 91 4.3 4.3 0.00 0.00 0.00 80 1016.0
20260507080216 51 91 4.3 4.3 0.00 0.00 0.00 80 1016.0
20260507074215 52 91 4.3 4.3 0.00 0.00 0.00 80 1017.0
20260507072214 53 91 5.2 4.3 0.00 0.00 0.00 80 1016.0
20260507070213 51 93 6.1 4.3 0.00 0.00 0.00 80 1016.0
20260507064212 52 93 6.1 4.3 0.00 0.00 0.00 80 1017.0
20260507062211 53 93 6.1 4.3 0.00 0.00 0.00 80 1017.0
20260507060210 51 93 4.3 3.5 0.00 0.00 0.00 80 1018.0
20260507054209 53 93 5.2 3.5 0.00 0.00 0.00 80 1018.0
20260507052208 51 92 6.1 4.3 0.00 0.00 0.00 80 1017.0
20260507050207 52 92 6.1 4.3 0.00 0.00 0.00 80 1017.0
20260507044206 54 92 6.1 4.3 0.00 0.00 0.00 80 1018.0
20260507042205 52 93 6.1 4.3 0.00 0.00 0.00 80 1017.0
20260507040204 54 93 6.1 4.3 0.00 0.00 0.00 80 1017.0
20260507034203 52 95 6.1 4.3 0.00 0.00 0.00 80 1018.0
20260507032202 54 95 6.1 4.3 0.00 0.00 0.00 80 1017.0
20260507030201 52 97 6.1 4.3 0.00 0.00 0.00 80 1017.0
20260507024200 53 97 6.1 4.3 0.00 0.00 0.00 80 1018.0
20260507022159 55 97 6.1 4.3 0.00 0.00 0.00 80 1016.0
20260507020158 53 98 4.3 4.3 0.00 0.00 0.00 80 1016.0
20260507014157 54 98 4.3 4.3 0.00 0.00 0.00 80 1017.0
20260507012156 56 98 5.2 4.3 0.00 0.00 0.00 80 1015.0
20260507010155 55 98 4.3 4.3 0.00 0.00 0.00 80 1015.0
20260507004153 57 98 5.2 4.3 0.00 0.00 0.00 80 1016.0
20260507002152 56 105 2.6 3.5 0.00 0.00 0.00 80 1014.0
20260507000151 58 105 2.6 3.5 0.00 0.00 0.00 80 1014.0
20260506234150 60 105 2.6 3.5 0.00 0.00 0.00 80 1014.0
20260506232149 62 105 2.6 3.5 0.00 0.00 0.00 80 1012.0
20260506230148 64 105 2.6 3.5 0.00 0.00 0.00 80 1012.0
20260506224147 61 187 0.9 2.6 0.00 0.00 0.00 80 1013.0
20260506222146 62 187 0.9 2.6 0.00 0.00 0.00 80 1011.0
20260506220145 63 187 0.9 2.6 0.00 0.00 0.00 80 1011.0
20260506214144 64 187 0.9 2.6 0.00 0.00 0.00 80 1012.0
20260506212143 65 187 0.9 2.6 0.00 0.00 0.00 80 1010.0
20260506210142 66 187 0.9 2.6 0.00 0.00 0.00 80 1010.0
20260506204141 67 187 0.9 2.6 0.01 0.00 0.00 80 1011.0
20260506202140 65 236 0.9 3.5 0.00 0.00 0.00 82 1011.0
20260506200139 66 236 0.9 3.5 0.00 0.00 0.00 83 1011.0
20260506194138 67 236 0.9 3.5 0.01 0.00 0.00 83 1012.0
20260506185921 67 253 0.9 3.5 0.00 0.00 0.00 83 1012.0
20260506183920 67 253 0.9 3.5 0.00 0.00 0.00 83 1012.0
20260506181919 67 237 1.7 4.3 0.00 0.00 0.00 83 1012.0
20260506175918 67 237 1.7 4.3 0.00 0.00 0.00 83 1013.0
20260506173917 67 234 1.7 3.5 0.00 0.00 0.00 83 1013.0
20260506171916 67 255 2.6 3.5 0.00 0.00 0.00 83 1014.0
20260506165915 67 255 2.6 3.5 0.00 0.00 0.00 83 1014.0
20260506163914 67 255 2.6 3.5 0.00 0.00 0.00 83 1014.0